Wind_Speed
15 15 15 15 15 15 15 14 14 13 13 13 14 13 12 12 12 12 12 12 12 13 14 15 15 17 18 18 20 21 23 22 20 17 17 17 15 11 10 13 12 11 9 8 10 11 11 14 15 16 14 11 9 9 11 10 7 7 7 8 10 10 12 12 13 9 8 9 5 6 3 5 7 4 5 5 10 12 8 9 9 8 8 11 15 23 27 27
15 15 15 16 15 15 15 15 15 14 13 13 14 14 14 14 13 13 12 12 12 13 13 14 15 16 18 19 21 22 22 21 20 20 18 19 19 16 15 18 17 12 10 11 13 14 13 13 15 15 11 9 9 10 11 10 9 9 7 9 10 10 12 12 11 7 7 7 3 4 1 4 5 2 4 6 12 13 10 11 12 11 13 15 18 24 24 26
15 15 15 16 16 16 16 15 15 15 14 13 14 14 14 14 14 14 14 12 12 13 14 14 14 16 18 20 22 21 20 21 19 15 8 10 16 19 18 18 19 16 13 14 13 14 14 13 15 14 11 10 9 12 11 10 10 10 9 10 10 13 13 7 6 5 4 4 1 3 1 3 5 3 4 7 12 15 14 12 12 13 15 17 16 21 23 24
15 15 15 16 16 16 16 15 15 15 15 14 14 14 14 15 14 14 14 14 12 11 13 13 13 15 17 20 22 20 19 17 11 2 8 7 6 6 10 14 17 18 17 17 14 13 14 13 13 14 12 10 10 12 12 11 9 9 11 11 10 14 12 5 6 7 5 4 4 3 3 5 5 4 5 9 11 13 14 13 14 13 17 19 18 19 21 23
15 15 16 16 16 16 16 16 15 15 15 15 15 14 15 15 15 15 14 14 13 10 11 13 13 15 17 19 20 19 16 9 2 10 10 7 5 5 2 8 14 17 17 18 16 14 14 13 12 13 12 11 12 12 12 14 10 9 13 15 15 11 7 7 8 8 6 5 5 5 6 5 1 4 8 10 11 10 11 13 15 15 17 18 20 20 19 20
16 16 16 16 16 16 16 16 16 15 15 15 15 15 15 15 14 15 14 14 14 11 10 12 12 14 17 18 19 18 12 5 4 7 6 6 5 8 6 4 12 16 17 18 18 16 14 14 12 12 11 11 14 13 12 15 13 10 12 15 17 11 7 8 6 6 5 6 9 8 5 4 4 8 9 11 13 7 8 13 15 16 18 18 19 18 18 19
17 17 17 17 16 16 16 16 16 16 16 15 15 15 15 15 14 14 15 14 14 12 10 10 12 13 17 18 18 15 11 11 4 3 5 4 4 9 8 6 10 16 18 20 19 17 15 16 15 12 12 12 15 15 14 15 16 13 12 13 16 13 10 8 4 5 6 9 10 7 5 6 8 9 7 12 14 7 4 7 11 15 17 18 18 18 18 18
17 18 17 17 17 17 17 16 16 16 16 15 15 15 15 15 14 14 15 14 14 13 10 9 11 12 14 15 14 10 10 15 8 3 2 6 7 10 10 6 11 17 20 23 20 18 16 17 18 13 13 13 13 15 14 14 16 15 14 13 12 12 11 9 7 6 8 10 8 8 9 9 10 8 6 11 12 8 3 3 11 16 17 19 19 19 18 17
17 17 17 18 17 17 17 17 17 16 16 16 15 15 15 15 15 15 14 14 14 13 11 9 11 11 13 12 11 8 7 8 4 2 2 6 9 10 11 7 12 17 19 23 22 21 16 15 18 15 13 14 14 14 14 14 12 14 17 15 10 10 11 11 11 10 9 8 8 10 11 11 10 7 8 11 9 8 7 7 11 17 19 19 19 19 18 17
17 17 16 17 18 17 17 17 17 17 16 16 15 15 15 14 15 15 15 14 13 13 12 10 10 11 13 13 11 9 2 2 2 3 5 8 11 10 10 6 8 15 19 21 23 23 17 15 16 15 13 12 14 14 14 15 11 10 16 18 14 10 10 10 12 12 11 10 11 11 12 12 9 7 8 4 5 7 1 7 10 16 18 17 17 17 16 17
17 17 16 16 17 17 17 17 17 17 17 16 15 14 14 14 15 15 15 14 14 13 12 11 9 11 14 13 11 9 1 2 5 8 11 12 12 11 10 7 6 12 17 19 22 24 21 18 15 12 11 10 12 14 14 15 11 7 10 16 17 13 10 11 12 12 10 11 12 12 13 11 9 8 2 6 12 16 12 9 7 4 10 13 15 15 13 14
17 17 16 16 16 17 17 17 17 17 17 16 15 14 15 14 15 15 15 15 14 13 13 12 10 12 16 13 13 15 13 16 19 18 17 15 13 13 12 11 10 12 15 17 20 24 24 21 17 14 10 8 10 12 11 15 15 10 9 12 16 15 13 14 13 12 11 10 12 13 11 12 12 6 7 9 10 15 16 15 16 11 7 4 5 10 11 12
17 17 17 16 16 16 17 17 17 18 17 16 15 15 14 15 15 15 15 14 14 13 13 12 11 15 16 12 15 20 22 23 23 23 21 17 16 15 14 14 14 13 15 16 18 22 24 22 20 17 12 10 10 6 5 13 16 12 11 9 12 13 13 16 14 13 13 10 12 12 9 12 10 9 12 10 12 15 14 8 5 6 7 8 7 4 5 8
17 18 17 16 16 15 17 17 17 17 17 17 16 15 14 15 15 15 14 14 13 13 12 12 13 15 14 13 19 25 25 23 23 25 22 18 16 15 15 16 15 14 14 17 17 18 22 23 20 15 13 12 11 6 5 11 12 11 11 9 10 9 11 17 17 16 15 12 12 12 10 8 7 12 13 12 13 12 13 9 5 6 6 7 6 6 3 1
17 18 17 17 16 16 16 16 17 17 17 17 16 16 15 16 15 14 14 13 12 13 11 12 14 13 11 14 19 20 21 21 22 24 20 16 15 13 14 15 15 14 14 16 16 15 20 23 17 12 12 13 13 10 8 10 9 10 11 9 10 9 9 16 19 18 16 12 14 14 10 5 7 10 11 10 13 13 14 12 8 9 8 10 9 3 2 3
17 17 17 17 17 16 15 15 16 17 17 17 16 16 16 16 15 14 14 12 12 12 9 11 14 12 8 10 12 11 13 17 17 16 15 16 15 13 13 15 15 14 13 16 15 14 17 17 12 11 12 13 13 9 8 10 9 11 11 10 12 12 11 12 18 20 19 14 15 17 11 4 7 9 9 9 12 14 14 15 12 11 11 11 10 7 7 4
17 17 17 17 17 16 15 14 15 16 16 16 16 17 16 16 16 16 15 12 12 11 11 11 9 9 10 11 11 9 10 12 10 8 9 13 13 13 13 12 14 13 13 16 16 14 14 12 10 11 12 11 12 10 10 12 10 10 11 10 11 14 13 9 15 18 20 17 15 19 14 4 7 10 10 9 11 13 13 16 14 11 12 13 11 9 9 6
18 17 17 17 16 15 15 14 14 15 15 15 16 17 17 17 17 17 14 11 9 9 11 10 6 5 8 12 14 13 8 5 6 8 9 11 12 13 13 11 12 13 13 14 15 13 12 11 10 11 11 11 13 13 12 13 13 12 12 11 10 14 16 11 13 15 20 19 14 18 15 6 8 10 11 9 10 11 12 14 14 11 11 13 13 11 11 9
18 17 17 17 16 15 15 15 14 14 14 14 15 16 16 15 14 14 13 12 9 7 6 8 11 7 3 4 12 11 8 6 7 11 13 13 14 15 15 13 12 14 14 12 15 15 11 11 12 12 13 15 16 17 15 14 14 15 14 13 12 12 14 13 13 16 20 16 13 17 15 9 9 10 11 10 8 7 10 12 11 11 10 9 12 13 13 12
18 16 17 17 16 16 16 15 14 14 13 14 14 13 11 9 9 10 11 12 12 11 10 8 14 15 11 8 8 5 3 8 10 13 15 14 15 16 15 13 13 13 14 14 15 16 13 11 14 15 16 18 20 20 19 17 15 15 14 15 15 12 13 11 10 16 18 13 13 16 15 12 9 9 12 11 8 7 10 12 10 11 9 7 10 13 15 13
18 17 17 17 17 17 16 15 15 15 14 14 14 10 8 9 7 3 3 10 15 17 19 14 13 16 16 17 14 3 3 6 8 10 12 13 15 16 13 14 14 12 15 17 15 14 14 14 16 19 18 19 20 20 21 20 15 13 13 14 14 11 11 11 10 15 17 12 13 15 13 12 8 8 12 13 11 8 9 11 11 12 10 7 9 12 14 13
18 17 17 17 17 17 17 17 16 16 15 14 14 11 10 13 11 8 5 8 13 18 20 19 18 16 16 19 18 10 8 9 9 10 11 12 15 15 13 15 15 13 16 18 14 13 15 15 18 21 19 18 19 20 21 21 15 10 11 12 12 11 11 12 12 14 15 10 12 15 11 10 9 6 9 13 13 10 10 11 11 13 11 8 9 9 11 13
19 17 16 15 16 17 18 18 17 16 15 14 15 15 13 13 12 10 8 7 10 14 17 18 20 19 18 19 18 15 14 13 11 11 14 14 15 15 15 16 17 15 18 19 16 14 13 15 19 20 19 20 20 20 21 17 12 10 10 10 11 14 12 9 11 15 15 10 10 13 10 7 9 6 6 10 12 13 14 14 11 11 10 9 9 9 9 13
18 17 15 14 15 16 17 18 18 16 14 14 16 16 13 12 9 8 8 6 9 12 15 19 18 18 19 19 18 17 15 13 11 11 15 17 15 14 15 17 18 16 17 22 22 17 14 15 18 19 20 22 19 19 20 14 9 12 13 11 11 14 12 9 11 14 15 13 11 12 8 5 9 9 8 7 9 12 13 15 14 10 10 10 10 10 10 12
18 18 17 15 14 15 17 18 15 13 11 13 13 10 10 11 8 6 6 6 8 10 15 18 15 16 21 21 20 16 14 15 14 12 14 18 17 14 13 13 14 15 19 25 22 16 15 16 19 21 21 21 18 18 20 14 9 12 14 13 12 14 14 12 14 14 11 12 13 13 9 6 10 11 10 8 9 10 9 11 13 11 12 12 10 11 11 12
19 19 19 15 13 15 15 11 8 10 10 9 8 8 6 7 5 4 5 5 7 8 13 15 11 14 19 19 17 14 13 14 15 16 14 17 19 14 11 10 10 15 20 20 15 10 12 17 20 21 21 21 18 17 20 17 10 9 12 14 13 15 15 13 15 14 9 10 13 15 11 6 9 12 13 11 11 12 11 11 12 11 12 12 10 11 12 12
20 18 17 14 12 13 11 7 9 11 9 6 8 7 2 0 0 2 4 5 6 8 14 13 9 13 18 18 18 15 9 9 14 18 17 16 19 16 13 12 11 13 15 13 10 9 14 20 22 22 21 20 17 14 17 18 12 7 13 15 12 13 14 15 15 12 9 9 12 16 14 8 8 11 14 15 13 13 15 15 16 16 14 12 12 12 12 12
20 17 14 12 11 12 11 11 12 9 5 7 7 4 3 3 1 3 3 4 3 4 9 11 9 11 14 17 21 18 9 6 13 17 18 17 17 15 13 14 15 16 17 14 11 12 16 21 23 23 20 15 14 14 17 20 14 8 13 15 9 9 11 15 14 10 10 10 10 14 15 10 7 9 13 16 15 15 15 16 17 18 16 13 12 12 11 12
20 16 12 11 11 12 11 11 9 5 4 5 3 2 3 3 2 2 4 5 3 4 4 9 9 10 14 16 20 20 14 8 10 15 18 17 16 14 10 12 17 18 19 16 12 12 15 17 18 19 15 13 15 16 17 19 15 7 12 16 10 7 8 10 11 9 9 8 9 14 15 11 7 9 13 13 15 15 14 15 15 16 16 14 12 12 11 12
20 15 11 10 11 10 9 9 7 3 3 3 1 2 4 4 2 4 6 4 2 2 2 8 10 12 17 17 17 20 17 13 9 15 17 15 17 17 11 10 15 16 17 17 16 14 13 11 13 14 13 13 16 16 14 19 17 7 10 13 12 9 7 6 8 8 8 8 10 15 16 13 9 10 12 11 14 15 14 14 14 16 16 14 11 12 12 12
18 13 10 10 9 8 8 5 2 3 2 1 5 6 4 2 2 5 5 1 1 3 2 7 12 14 19 19 15 17 18 15 12 18 16 14 16 15 11 9 11 13 14 14 15 14 14 12 12 13 16 15 15 16 14 18 18 8 8 11 10 9 7 6 7 9 9 8 11 16 17 16 11 7 11 13 15 17 16 15 16 18 16 15 11 12 13 13
15 12 9 10 10 10 9 4 1 3 2 2 6 5 2 3 3 5 3 1 1 4 5 3 10 15 20 19 16 17 18 14 14 18 16 15 14 14 13 11 11 13 13 13 14 14 14 14 15 14 18 18 15 14 13 15 16 10 9 11 10 9 8 8 9 9 9 7 9 15 17 14 10 8 12 15 15 16 16 14 16 18 17 16 14 14 13 14
13 11 9 10 11 11 10 7 4 4 3 4 5 3 3 4 3 4 3 2 0 1 4 7 9 14 19 17 16 18 18 14 16 17 17 18 15 15 18 16 16 15 12 14 15 13 11 13 18 17 15 16 16 13 11 13 15 12 11 11 10 9 9 9 9 8 9 7 8 15 15 10 8 7 13 16 15 15 16 14 16 17 18 17 16 15 15 15
10 9 9 10 11 11 10 8 6 5 5 6 6 4 6 7 3 2 2 2 1 3 5 9 9 13 17 15 16 19 16 14 18 17 16 17 14 14 16 17 21 17 11 13 13 12 12 10 16 18 13 16 19 14 12 13 14 13 11 11 10 8 7 8 8 8 9 9 8 12 12 9 7 4 8 13 14 14 15 14 14 15 18 17 16 15 15 15
7 10 10 10 10 10 9 8 7 6 6 6 5 5 7 6 3 2 2 1 1 4 7 10 9 12 15 15 17 22 16 12 19 18 14 16 14 14 15 16 23 20 12 13 10 12 13 10 15 17 13 17 19 14 14 14 13 12 10 11 10 9 8 6 5 4 5 9 8 8 7 5 3 2 3 8 13 12 10 11 14 16 18 18 16 15 14 14
9 9 8 9 8 7 7 7 7 7 6 5 5 6 6 4 3 3 1 0 3 6 10 10 8 12 12 12 16 23 17 12 19 16 12 17 16 17 18 15 20 21 14 12 10 10 12 9 16 17 13 18 18 15 15 13 10 9 11 12 10 11 10 6 4 1 2 8 8 7 7 5 5 4 5 8 12 12 11 13 15 17 19 18 16 15 14 14
10 7 7 8 6 5 7 6 7 7 5 4 6 6 6 5 5 4 2 2 3 4 7 5 7 11 12 11 14 22 18 12 18 15 11 16 15 17 20 17 21 23 18 14 10 10 11 9 16 18 15 18 18 16 15 13 11 9 10 11 9 11 11 7 6 5 6 9 7 9 12 9 7 7 8 10 13 13 14 14 15 17 18 16 15 15 15 16
10 7 7 7 3 3 6 6 7 7 4 5 8 9 7 7 5 4 4 5 5 5 6 4 5 10 12 13 15 21 17 12 17 15 12 13 12 17 20 17 20 23 20 16 10 9 12 8 13 18 16 16 17 15 12 14 16 12 10 11 9 9 10 8 8 8 9 9 7 11 14 11 9 8 11 15 15 15 16 15 16 18 16 14 15 16 17 16
10 7 5 5 4 3 5 6 6 5 4 6 9 8 5 6 6 5 5 6 6 6 7 6 5 8 10 14 17 19 16 14 16 14 11 11 11 18 21 15 17 21 21 18 10 9 11 7 9 16 15 15 15 13 10 12 15 14 10 12 10 8 7 8 7 7 9 9 8 10 11 9 8 10 16 18 18 17 18 16 15 17 16 14 13 15 16 16
8 5 2 6 6 4 4 4 5 5 5 7 8 7 5 6 6 6 6 6 6 5 5 7 6 7 10 16 19 16 14 15 16 12 11 12 12 17 21 16 17 22 22 18 13 10 9 7 8 13 15 14 12 11 12 12 13 12 9 11 11 7 7 8 8 7 8 8 8 8 8 8 6 9 15 18 18 18 18 17 15 15 15 13 13 14 14 15
6 4 2 6 6 5 4 4 5 5 6 7 8 8 7 7 6 8 8 8 8 6 6 9 8 6 11 16 17 13 12 14 15 11 10 13 12 13 18 17 17 21 20 16 13 10 7 8 9 11 12 13 12 14 15 14 15 12 8 9 10 9 8 9 9 9 8 8 8 7 8 6 3 7 12 14 16 16 17 17 14 15 16 14 12 14 15 15
5 4 3 8 7 5 4 5 4 4 5 6 8 9 9 7 7 8 7 8 10 8 8 9 9 9 11 15 15 13 12 12 14 11 10 14 12 12 17 19 18 21 17 12 13 12 7 6 9 10 11 12 13 16 16 16 17 14 10 10 10 9 9 8 8 9 8 9 8 6 7 3 3 3 9 12 14 14 16 16 14 15 16 14 13 15 15 16
5 4 3 9 8 5 4 5 5 4 5 7 9 11 10 6 5 7 5 5 8 7 7 6 7 9 12 15 14 14 13 12 13 12 12 14 12 13 17 17 19 21 16 11 13 12 7 6 8 10 10 11 12 14 15 16 15 13 12 12 11 10 10 8 7 6 7 8 8 5 5 5 3 1 4 9 13 14 14 15 15 15 14 14 15 16 15 16
5 6 2 7 9 6 3 5 6 6 6 7 9 12 10 6 5 7 6 4 4 4 4 4 6 8 11 15 13 13 13 11 11 12 12 11 10 14 19 20 20 18 14 11 11 9 7 7 9 10 10 11 12 12 14 15 13 10 11 14 14 13 12 10 9 6 6 9 10 8 5 5 5 2 3 7 14 15 13 14 14 15 14 13 14 15 15 15
5 5 2 5 9 7 3 5 5 7 8 9 11 11 7 4 4 5 6 5 4 4 3 2 7 8 11 15 13 12 12 10 9 11 12 11 10 14 19 21 19 17 15 13 11 9 7 8 9 10 10 11 12 11 10 12 11 9 11 16 17 16 15 11 8 8 7 9 11 10 5 5 6 7 8 9 14 15 14 14 14 14 14 14 13 15 15 15
4 4 1 2 6 6 5 5 5 6 6 8 9 5 3 3 3 4 6 5 3 5 3 2 8 9 12 15 14 12 12 12 9 10 12 10 8 11 18 20 19 18 12 8 9 9 7 9 10 11 11 11 11 10 9 11 12 11 12 16 17 18 17 11 8 8 8 6 8 9 7 7 9 12 13 12 14 15 15 15 15 13 13 12 13 14 14 14
2 3 3 2 2 4 5 5 5 5 5 5 5 3 3 3 1 2 4 2 2 4 3 3 9 10 11 14 13 10 12 13 11 11 13 11 9 12 17 19 19 14 10 8 10 9 6 9 12 12 12 10 11 13 14 14 15 15 14 15 16 17 17 13 9 9 7 6 8 9 9 9 10 14 16 15 14 15 15 15 15 13 12 11 11 13 15 15
2 3 4 4 2 4 4 4 5 7 8 5 3 3 4 4 5 3 1 2 3 3 2 5 11 13 13 13 10 9 11 13 11 11 11 10 10 12 15 18 17 12 11 9 12 8 6 8 13 12 8 5 8 12 16 16 15 15 16 15 14 15 17 15 12 10 9 9 8 6 8 11 10 12 14 15 14 15 16 15 14 15 15 13 13 15 17 18
3 3 4 4 4 6 8 9 10 10 7 3 3 3 4 7 6 4 2 0 2 1 2 6 9 10 13 12 9 9 10 10 10 10 10 10 11 12 12 14 15 13 12 11 9 7 7 7 12 13 8 5 6 5 9 13 13 14 16 16 15 15 16 15 14 12 11 11 9 4 6 10 10 11 13 13 13 14 15 14 15 17 18 18 17 17 18 18
2 3 4 6 7 8 8 8 8 7 4 2 3 4 4 6 7 5 5 4 2 2 1 3 2 4 8 11 8 8 8 8 10 9 9 11 11 11 10 10 12 14 14 11 8 9 7 6 12 12 8 9 7 2 5 9 11 13 15 16 17 16 15 14 13 13 11 12 10 6 6 7 7 10 14 14 12 14 15 16 17 17 19 21 21 20 20 19
2 4 4 6 7 7 7 7 6 4 4 5 6 6 5 6 6 4 4 5 4 4 2 2 7 6 8 9 6 7 6 5 7 9 10 11 9 9 9 9 11 13 13 10 9 10 8 6 9 11 9 9 10 8 9 9 9 12 13 15 17 16 14 13 12 12 12 12 11 9 8 6 4 7 12 14 14 15 17 18 17 16 18 21 21 21 21 21
5 5 4 4 5 6 6 7 6 5 4 6 7 7 6 6 4 2 3 3 3 5 3 5 8 3 8 9 6 6 5 3 3 5 8 10 10 9 8 9 12 12 11 10 8 9 8 6 7 9 9 8 11 11 8 6 8 10 9 11 14 15 14 13 13 13 13 12 10 9 8 6 7 9 11 14 15 16 17 17 16 15 17 19 20 20 20 20
Wind_Direction
333 332 332 333 332 332 331 326 320 319 320 318 311 297 283 279 284 289 296 301 305 310 315 318 320 322 321 322 318 314 315 309 299 285 264 256 255 254 250 244 239 222 213 225 239 244 218 210 213 206 212 213 214 228 207 205 217 216 224 231 233 235 240 243 245 237 244 251 145 132 185 226 256 209 198 201 222 239 198 193 194 165 110 102 124 134 142 140
329 329 328 330 331 330 330 328 323 318 315 315 315 310 298 286 280 278 285 293 298 306 311 314 319 319 320 319 314 314 314 304 289 279 264 255 256 253 245 243 240 223 216 229 227 224 217 207 205 202 209 213 206 216 207 196 210 219 217 227 234 238 240 243 251 243 240 258 121 119 151 216 260 270 209 203 209 214 200 199 194 167 116 105 126 135 141 142
325 326 326 326 328 327 327 327 325 321 315 311 311 311 309 302 291 281 277 279 288 300 305 308 315 317 318 313 313 317 312 299 283 270 244 227 239 245 245 241 236 225 218 229 228 224 227 217 204 202 211 219 206 206 207 191 201 219 225 231 232 240 246 244 257 268 276 290 239 171 189 225 242 252 229 230 213 202 210 197 184 183 142 127 134 137 147 151
321 323 323 324 324 324 323 324 324 322 318 312 308 306 306 306 303 296 284 276 277 288 299 304 311 315 313 310 314 319 305 291 278 179 119 157 187 222 240 237 234 225 219 232 243 238 238 235 215 205 214 222 209 207 209 194 197 213 223 237 234 236 245 228 234 252 257 269 261 240 252 242 232 236 243 247 222 202 213 194 185 188 148 144 149 146 156 158
317 318 320 321 321 321 320 320 321 320 320 316 312 307 303 303 304 304 295 284 272 274 295 298 308 311 305 310 318 314 295 281 89 103 115 133 98 43 313 239 232 224 220 229 238 239 236 238 226 211 216 224 213 208 211 203 203 220 224 237 244 247 255 233 225 234 233 238 249 243 244 262 291 245 240 239 235 214 203 193 193 176 146 157 154 148 161 163
315 314 315 317 318 318 318 317 317 317 316 316 315 311 304 301 304 305 300 294 278 271 286 293 304 307 304 315 314 297 277 272 75 109 150 136 64 7 359 285 238 217 216 224 226 229 226 223 220 212 213 223 220 211 211 207 204 225 227 228 242 255 258 247 228 211 219 226 229 230 250 289 284 253 240 231 240 237 205 202 192 162 152 162 151 148 164 165
316 314 313 313 313 314 314 314 314 314 313 313 313 314 308 301 301 302 299 296 286 273 273 287 299 301 308 319 303 275 256 269 276 128 199 207 1 343 342 312 234 206 209 217 218 220 217 213 213 213 213 219 224 217 212 211 207 223 234 223 232 239 239 245 228 194 213 226 228 238 264 267 252 248 235 226 230 224 222 207 161 142 148 154 152 160 167 163
317 315 313 312 311 310 310 310 310 310 310 311 310 312 312 306 298 297 297 296 292 278 264 277 292 298 309 315 301 272 249 259 252 109 231 257 320 325 316 294 203 198 207 212 214 216 213 213 212 212 216 217 223 220 211 215 214 219 236 234 225 225 228 233 230 220 222 224 224 238 252 248 243 256 254 232 218 185 186 182 136 141 153 156 160 164 162 160
317 314 312 310 309 308 308 307 306 306 306 307 309 309 310 309 301 296 295 294 294 281 263 267 279 289 298 296 289 281 263 263 269 34 323 297 318 311 302 280 193 196 208 211 214 216 214 213 212 214 223 222 224 224 214 217 218 213 228 239 229 222 229 233 232 230 228 224 221 229 239 239 235 258 259 229 199 159 172 187 154 154 160 158 159 158 157 160
320 316 313 310 308 306 306 305 304 302 303 304 306 307 306 309 305 298 295 294 295 283 262 257 271 282 287 280 266 264 280 23 359 349 330 317 314 301 287 271 199 205 211 212 214 216 218 216 213 218 231 232 230 228 217 218 221 210 223 233 231 226 228 231 230 225 225 222 220 226 232 234 223 221 240 235 37 31 202 207 175 162 160 152 153 154 156 159
323 321 316 312 310 308 307 304 303 300 299 300 301 303 304 305 305 301 295 291 292 284 262 248 260 273 277 275 260 247 208 9 322 314 313 311 301 286 269 259 239 226 218 214 216 215 219 221 217 219 227 237 238 231 223 221 225 222 227 233 229 227 229 225 226 222 221 219 213 226 235 234 225 214 217 46 43 34 27 6 8 117 149 147 151 153 154 154
323 321 317 313 310 309 309 304 303 300 296 296 297 299 301 302 303 301 295 289 290 287 267 249 248 265 273 270 254 251 267 289 298 299 297 297 288 275 263 257 252 242 230 222 218 215 219 222 222 223 217 222 233 231 226 220 225 232 228 234 226 223 231 224 223 219 215 218 205 215 234 232 226 188 90 76 88 76 58 27 9 16 34 53 135 146 145 148
322 321 318 313 309 308 309 305 303 301 297 294 293 295 297 298 298 298 296 289 288 288 271 250 243 260 267 265 258 261 271 281 287 288 286 284 279 268 255 248 243 242 239 234 224 215 216 221 224 228 224 222 224 231 250 218 219 229 220 232 229 217 225 219 219 218 211 215 199 201 229 224 202 132 107 106 107 97 88 77 34 41 41 26 12 30 116 146
322 321 318 315 312 309 307 305 303 301 297 293 290 292 292 292 293 293 295 290 286 287 272 246 242 257 261 264 270 267 265 271 277 277 276 273 266 258 243 234 233 234 233 235 234 222 215 218 225 232 231 233 232 219 238 218 208 222 216 221 232 224 222 209 208 211 207 205 190 201 234 214 147 121 128 132 134 128 122 134 140 115 103 88 52 354 13 342
322 321 318 316 314 310 305 302 303 301 298 293 289 288 286 286 289 290 292 288 282 280 266 243 239 254 266 269 274 269 258 257 263 264 260 256 251 244 230 220 220 223 223 224 232 231 216 213 219 232 224 223 238 228 215 215 200 212 218 215 222 230 227 202 195 202 203 192 183 207 232 182 131 126 134 145 148 140 134 143 138 123 120 109 105 67 53 335
321 320 319 316 314 311 306 301 302 301 298 293 286 283 284 287 286 287 289 282 277 269 244 237 240 243 262 276 272 258 242 237 245 254 243 236 240 238 222 210 208 212 215 211 221 231 215 207 212 226 222 209 226 232 209 211 204 205 216 220 212 216 235 202 183 193 201 191 184 211 228 154 139 136 144 167 151 141 140 141 141 137 131 125 128 139 148 171
320 320 320 317 315 312 307 305 302 301 300 293 283 278 280 283 278 281 284 270 265 253 223 229 244 242 252 277 278 249 232 225 227 241 230 226 233 238 230 208 199 201 201 200 211 222 203 199 208 215 223 212 210 215 210 208 203 200 206 224 213 208 232 205 170 184 197 199 191 207 224 163 142 147 152 170 157 157 151 139 145 150 145 143 140 143 151 150
320 318 319 319 318 314 311 310 305 302 300 291 283 276 275 279 275 275 271 246 236 235 229 231 228 245 247 245 249 250 252 222 218 247 246 239 231 234 237 214 193 191 189 190 202 209 193 194 207 206 212 211 206 207 212 206 200 201 197 213 216 206 224 205 167 178 193 201 197 200 211 170 152 160 149 160 175 176 152 139 148 156 159 152 141 140 142 135
320 317 319 320 319 317 316 313 307 301 297 291 286 281 281 282 270 257 242 219 207 205 221 206 193 220 297 215 217 234 268 257 245 255 245 237 225 220 230 221 196 188 188 185 191 197 191 192 203 207 206 204 205 206 215 215 204 204 196 206 215 201 216 210 174 179 188 195 197 199 202 169 160 170 149 155 188 180 147 146 152 156 164 154 142 140 139 138
321 317 317 317 318 319 317 311 304 297 291 287 284 281 276 267 252 239 219 209 213 223 238 206 188 223 272 284 226 178 267 246 234 241 231 225 212 204 217 216 196 192 195 188 183 190 194 198 203 207 206 202 204 206 215 223 215 208 198 203 218 207 206 204 168 172 181 190 201 204 198 168 162 173 150 148 179 177 152 156 163 164 164 158 150 142 139 136
321 316 314 314 316 315 314 309 301 295 288 282 278 273 259 253 266 289 225 219 218 222 241 237 207 225 253 265 256 240 317 255 232 232 220 211 203 196 202 203 194 192 198 192 182 186 197 208 208 205 207 203 203 207 213 222 226 220 205 199 215 218 198 174 148 168 181 196 207 200 187 163 161 173 149 152 174 181 169 163 167 172 167 164 157 143 135 127
318 314 311 311 312 312 311 305 300 296 285 273 264 254 252 263 284 321 310 260 231 219 231 239 231 234 242 254 267 284 283 257 249 242 216 207 206 197 189 194 199 191 192 194 183 186 201 213 208 201 206 205 201 205 210 218 224 227 218 202 204 216 199 161 150 176 185 201 203 183 171 156 155 168 165 165 166 172 182 174 171 173 170 174 164 140 131 128
319 313 308 308 310 309 308 303 300 293 277 263 256 252 259 272 288 300 281 272 262 235 225 229 232 235 234 243 258 263 252 243 249 237 209 207 210 201 194 193 199 194 189 195 191 190 202 208 205 199 203 207 201 202 208 213 215 221 221 205 200 208 201 161 157 182 189 206 205 176 165 160 152 153 189 175 156 168 179 168 167 170 168 177 163 141 136 134
319 315 306 304 306 305 307 305 297 283 264 255 257 257 263 271 280 280 262 260 267 250 233 226 226 232 232 233 239 242 240 232 239 234 201 199 208 207 205 197 197 198 194 197 197 199 204 199 201 200 201 206 201 197 205 206 202 216 220 211 205 201 190 167 167 181 191 208 207 179 166 173 169 168 187 179 154 166 166 157 165 168 168 174 155 145 143 131
316 315 308 301 302 306 309 305 294 282 269 259 265 278 271 258 253 255 259 262 256 244 234 225 219 229 227 225 230 234 239 227 227 238 205 195 206 204 204 203 201 202 197 197 199 203 206 194 196 201 199 203 200 197 202 201 194 209 220 223 217 201 185 174 174 175 189 204 196 186 187 184 183 181 180 178 167 166 159 161 172 169 170 174 161 159 152 133
313 311 308 298 298 308 307 300 298 301 290 274 298 327 290 247 245 248 244 256 257 230 211 205 202 208 207 211 217 218 237 231 218 231 221 203 211 213 205 199 205 210 198 194 200 205 204 194 194 200 196 197 202 201 196 196 202 203 208 220 232 218 194 175 177 181 193 198 185 194 206 188 184 190 184 184 184 177 174 174 179 183 181 178 174 169 158 142
321 310 302 295 295 305 305 301 312 310 298 305 330 332 319 159 301 231 229 248 253 217 192 185 179 178 183 195 195 192 221 213 194 217 219 203 209 220 219 198 197 211 196 189 201 200 198 195 192 196 195 195 203 200 188 193 211 206 189 201 234 237 198 174 183 192 196 192 184 197 212 208 196 194 184 186 193 188 184 180 179 186 187 180 172 162 159 150
331 317 298 291 292 294 294 300 308 309 312 336 345 344 42 60 107 163 222 240 196 166 177 177 164 163 181 190 186 194 222 179 170 196 201 199 207 217 228 213 202 204 196 195 198 186 196 200 192 191 195 195 199 196 185 191 213 220 182 181 214 239 188 174 192 202 200 202 195 198 209 219 208 189 181 185 195 194 188 188 184 183 185 177 164 157 158 150
328 319 295 288 292 289 285 286 293 305 325 332 348 360 41 87 108 152 229 239 151 119 152 163 158 173 189 185 185 201 227 222 184 174 179 198 214 219 236 226 209 203 196 198 199 187 194 199 187 185 193 193 195 198 186 189 209 214 171 168 184 211 185 182 204 207 200 209 210 197 202 221 212 185 183 185 196 196 188 192 190 185 181 165 153 157 155 145
321 312 292 284 287 284 273 265 268 272 299 296 224 65 74 109 131 201 222 242 166 144 150 161 172 192 188 180 186 199 216 233 195 155 167 193 208 219 251 253 221 206 191 195 209 197 172 168 178 188 202 199 196 198 185 190 203 178 155 174 183 197 200 198 217 220 204 203 213 204 200 216 223 188 178 188 200 195 190 191 188 188 175 148 149 165 155 143
318 306 286 268 264 276 276 265 243 216 254 251 146 115 96 139 216 219 217 244 310 346 2 176 186 194 187 184 188 191 208 225 182 155 168 186 193 208 236 238 213 200 186 192 207 190 159 166 188 198 208 204 195 194 184 192 200 170 162 190 182 185 200 200 214 227 223 208 208 209 201 208 226 196 175 194 199 193 194 191 186 186 163 137 158 173 155 140
315 304 283 255 250 264 267 263 227 212 237 188 160 143 167 225 229 239 260 314 291 341 348 250 210 194 187 192 189 183 199 208 176 167 173 178 185 198 207 198 186 190 185 186 194 182 173 188 192 193 205 204 193 188 180 190 199 184 182 196 183 180 190 197 203 210 224 222 206 208 203 205 229 210 182 189 190 191 199 194 190 184 152 140 168 170 149 138
313 304 281 250 244 251 254 262 266 244 231 208 207 211 229 252 246 228 278 342 161 284 317 303 257 202 188 194 186 180 195 192 174 177 176 178 184 193 206 203 192 193 184 184 190 180 180 194 191 190 197 199 198 191 178 185 195 191 190 194 189 186 184 194 201 197 212 224 211 209 203 202 228 203 173 180 186 194 199 194 194 180 147 147 167 159 145 139
311 291 267 249 244 248 251 252 244 238 239 232 234 234 236 261 270 205 284 355 121 228 270 304 277 210 193 198 182 175 192 184 172 178 175 179 187 189 204 206 196 195 182 186 193 180 182 188 188 190 184 190 202 200 180 182 192 195 197 202 204 199 184 191 201 196 202 207 208 218 210 197 210 173 151 174 182 192 197 191 185 163 142 148 157 150 146 141
295 277 259 251 249 250 250 244 233 234 244 248 251 245 245 263 283 289 310 335 319 277 290 302 265 206 192 198 182 176 191 182 173 181 177 181 188 185 195 201 195 195 187 185 189 183 191 189 181 186 183 186 198 200 189 187 191 193 201 211 213 204 184 182 211 221 209 200 194 215 216 176 151 107 132 168 169 175 177 160 155 148 145 153 153 149 152 149
283 274 250 245 250 245 239 236 228 225 237 261 266 254 258 278 294 304 358 10 301 305 312 302 233 195 186 187 175 176 192 186 174 183 181 183 190 187 192 198 191 195 196 187 179 181 194 181 168 176 183 187 194 200 197 196 190 182 201 212 209 211 202 181 193 281 236 210 190 192 199 154 124 158 173 168 164 163 144 128 140 148 153 158 154 150 157 160
292 285 257 249 247 222 218 223 222 224 235 258 263 265 280 291 288 286 260 255 287 296 304 291 196 189 182 174 171 175 183 182 179 185 179 183 191 186 192 196 189 196 204 193 180 189 197 165 158 175 186 185 193 205 203 205 204 188 196 204 200 215 220 202 192 188 207 215 188 187 203 190 177 185 176 175 178 170 154 148 158 161 161 164 160 156 162 163
294 290 272 252 223 193 208 213 216 225 237 252 259 265 277 286 282 286 281 274 282 270 274 270 191 188 180 172 171 173 175 174 179 185 178 182 190 183 190 196 189 196 203 193 184 197 199 169 163 184 187 175 187 206 203 203 216 217 198 194 199 210 212 209 206 193 200 212 193 196 209 206 198 183 170 182 189 178 164 164 171 170 168 169 164 161 162 156
284 281 261 200 177 186 199 210 219 229 240 248 256 259 274 292 286 290 295 282 273 260 265 273 226 200 191 177 165 167 177 176 176 182 179 185 186 179 189 193 186 196 200 188 181 196 196 174 169 185 181 170 182 203 199 188 210 226 211 199 208 213 203 203 209 201 199 206 202 200 206 211 206 178 171 184 190 180 170 169 175 174 172 170 164 162 157 148
282 281 212 153 166 176 175 207 223 231 239 245 260 269 285 300 284 271 271 259 257 251 260 276 249 207 191 175 163 168 179 174 178 184 180 186 177 174 190 190 180 192 194 182 183 197 192 174 174 180 177 178 184 197 199 185 191 212 212 202 202 196 195 202 206 212 209 203 201 201 207 217 201 167 173 183 185 181 173 168 172 175 172 168 160 155 150 147
292 286 182 150 159 158 169 219 226 229 243 248 262 269 276 288 274 262 257 244 245 244 248 268 267 228 190 170 163 171 172 171 184 184 173 183 174 168 186 184 178 189 188 182 187 191 182 175 180 180 180 189 190 188 198 198 192 197 202 205 201 188 194 205 205 209 216 215 209 208 213 211 148 149 173 182 182 180 172 165 167 171 171 164 152 146 145 150
277 273 156 148 160 169 203 252 249 236 247 259 272 278 284 289 274 273 266 235 234 237 233 247 260 239 194 165 161 171 173 172 182 179 167 172 169 168 174 173 183 190 183 181 185 181 187 188 180 182 185 190 186 184 199 210 203 198 201 209 209 199 199 209 205 197 211 228 223 219 215 179 83 141 177 180 181 175 167 162 161 169 170 158 146 147 149 154
263 274 143 149 167 187 233 268 266 250 251 270 285 289 290 287 271 282 284 225 219 225 226 232 243 222 178 160 166 176 175 173 175 175 165 162 169 172 163 167 188 191 182 185 183 177 198 204 176 179 180 181 184 184 197 215 213 202 203 210 215 209 202 214 223 201 204 224 219 215 208 161 111 297 205 181 170 160 162 164 161 168 169 152 148 154 154 153
287 286 203 150 154 159 223 265 275 278 277 281 289 291 290 278 258 269 274 249 216 219 228 226 235 215 166 160 172 171 166 170 174 169 159 162 172 165 164 177 190 187 184 194 181 164 190 204 183 179 175 177 187 184 188 207 214 207 203 209 216 216 203 207 231 228 211 220 217 215 208 151 136 179 215 170 152 151 164 168 164 167 164 153 154 159 155 150
299 285 223 155 152 157 224 257 272 284 290 295 292 294 300 285 262 265 262 256 243 249 257 206 216 206 160 161 171 164 160 169 170 161 159 164 159 156 170 181 183 182 185 194 186 166 188 208 190 183 184 185 189 186 185 194 201 208 208 204 210 217 211 203 216 229 221 216 220 220 196 129 135 171 186 165 151 155 162 163 164 163 157 156 160 157 154 152
308 301 291 171 170 188 232 244 254 265 277 298 299 301 308 269 240 238 242 240 236 254 281 231 211 194 161 167 173 161 161 171 173 164 160 155 144 160 175 176 180 183 170 160 171 173 200 217 198 192 200 197 188 187 192 193 193 203 208 205 205 211 217 213 207 221 224 210 223 227 196 158 154 170 180 171 160 160 159 159 160 154 149 156 158 152 151 152
310 316 330 343 227 226 237 226 224 239 259 292 310 318 300 287 149 176 221 243 269 261 275 234 209 186 166 173 173 159 160 167 171 169 160 148 142 161 171 177 183 168 119 121 172 186 214 212 201 205 208 206 202 194 190 193 197 202 205 208 207 205 213 219 212 215 214 203 219 218 190 173 165 171 179 175 165 163 162 160 157 153 155 158 153 148 146 148
327 320 338 347 297 279 293 269 263 279 275 251 240 294 331 20 50 63 231 232 228 254 274 202 189 176 163 161 161 162 164 163 163 165 158 146 147 156 166 181 182 147 123 162 183 195 218 199 200 211 203 217 240 211 191 190 197 201 204 208 207 205 209 214 217 218 211 214 230 216 184 180 167 168 179 175 168 165 160 155 153 154 158 158 154 153 152 155
324 313 331 334 303 284 288 285 286 294 289 225 222 312 5 34 41 50 18 263 175 275 283 178 174 173 162 154 159 166 161 158 159 159 151 144 151 157 162 178 179 160 164 183 185 203 222 198 199 206 190 206 260 238 188 191 198 200 204 206 207 209 211 210 215 218 215 225 241 241 212 200 175 170 180 176 167 157 147 149 158 160 161 160 160 160 160 160
341 318 319 322 310 291 289 294 294 301 329 5 357 357 26 31 35 45 19 13 76 42 67 151 296 268 181 163 164 154 137 144 153 147 143 145 153 161 164 172 174 169 178 187 183 198 217 201 194 202 199 197 208 207 189 204 213 210 207 206 205 209 212 211 212 211 211 224 226 205 206 211 186 176 175 166 158 152 150 161 170 169 167 164 163 164 164 162
259 238 277 313 316 313 325 330 320 328 1 6 359 359 18 34 34 35 28 32 46 39 35 310 310 282 191 171 143 106 93 123 136 128 142 153 154 158 164 171 171 167 177 188 182 187 209 211 191 201 213 197 188 198 204 209 224 226 220 213 207 207 209 208 210 210 209 216 214 201 197 192 170 165 157 152 158 161 164 174 178 174 171 170 168 166 165 165
303 222 234 293 297 307 324 329 337 0 6 350 350 351 4 36 39 23 42 42 37 46 28 301 310 282 183 166 115 65 24 360 60 102 146 159 153 153 163 171 171 169 174 182 180 182 199 209 190 197 212 199 189 198 200 201 220 226 224 218 214 212 211 208 208 208 209 213 211 206 207 188 164 161 154 158 170 172 171 179 182 175 172 174 174 169 165 165
Height
821 820 818 817 816 815 814 813 812 811 810 809 809 808 808 808 807 807 806 806 805 804 804 803 802 800 798 797 794 792 790 787 784 781 777 773 772 773 773 773 773 774 775 775 775 774 771 770 769 768 769 766 766 762 758 757 756 761 768 772 769 762 754 744 739 736 736 732 731 739 740 746 746 737 732 732 738 735 732 732 729 729 736 745 748 754 761 765
820 819 818 817 815 814 813 812 811 810 809 808 808 807 807 806 806 805 805 805 804 804 803 802 801 800 798 796 793 791 789 786 782 776 771 769 770 771 771 771 772 773 774 774 773 770 768 767 765 765 766 764 763 760 757 756 757 762 765 768 762 752 743 732 730 728 731 733 733 739 742 745 744 738 733 739 745 738 739 739 732 736 746 752 752 757 764 766
819 819 817 816 815 813 813 811 810 809 808 808 807 806 806 805 805 804 804 803 803 803 802 801 800 799 798 795 793 791 788 784 776 769 766 766 768 768 769 770 770 772 773 772 770 768 765 763 762 763 765 763 759 757 758 756 757 759 759 763 755 743 735 728 730 731 732 735 738 742 742 743 742 736 735 740 742 739 741 739 737 742 750 757 756 759 765 768
819 818 816 815 814 813 812 810 810 809 807 807 806 805 805 804 803 803 802 802 802 801 801 800 800 799 797 794 792 790 788 781 768 762 764 765 766 767 768 768 769 770 771 771 770 768 765 761 759 760 764 763 756 754 757 755 755 755 755 757 746 735 735 732 734 735 735 738 741 744 744 744 738 734 738 740 742 742 737 732 736 741 745 754 757 761 766 769
818 817 816 815 813 812 811 810 809 808 807 806 805 804 804 803 802 801 801 800 800 800 800 800 799 798 796 794 791 790 788 777 761 760 764 764 765 766 766 767 767 769 770 771 770 768 766 762 759 760 762 761 755 754 756 750 750 753 751 748 738 733 739 735 733 736 737 740 744 746 746 742 736 737 738 739 743 739 729 726 728 732 741 749 754 761 765 768
817 816 815 814 812 811 810 809 808 807 806 805 804 803 803 802 801 801 800 799 799 799 799 799 798 797 795 793 790 790 787 771 759 762 764 764 766 765 766 766 766 767 769 770 768 767 764 762 761 762 761 759 755 753 753 746 747 755 749 743 739 735 741 737 733 738 740 744 747 745 742 738 741 743 736 736 738 728 719 719 721 727 736 744 751 760 765 767
816 815 814 812 811 811 809 808 807 806 805 804 803 802 802 801 800 800 799 798 798 797 798 798 798 796 794 792 788 786 782 768 760 763 763 764 765 764 765 764 764 766 767 767 765 764 762 761 761 759 759 758 753 749 749 745 745 753 749 742 740 737 740 738 736 740 742 746 744 740 740 742 747 743 734 734 731 722 719 716 719 728 734 743 753 760 764 765
815 814 812 811 810 809 808 807 806 805 804 803 802 801 801 800 799 798 798 797 796 796 797 797 797 796 794 792 787 781 774 765 761 762 763 765 765 764 764 762 763 764 764 764 762 761 759 759 758 755 757 755 749 746 745 746 746 750 749 741 737 738 739 738 738 741 742 743 740 740 744 744 741 736 734 734 727 723 724 721 724 734 739 745 754 759 762 763
814 812 811 810 809 808 807 806 805 804 803 802 801 800 800 799 798 797 797 796 795 795 795 796 796 795 795 792 787 780 769 761 761 763 763 764 764 764 763 760 761 762 762 761 759 758 756 756 754 751 753 750 745 744 743 749 749 745 746 741 737 740 739 738 740 741 742 740 739 744 747 741 734 735 738 731 725 726 726 727 731 739 743 745 752 756 759 762
812 811 810 809 807 807 806 805 804 803 802 801 800 799 799 798 797 796 795 795 794 794 794 795 795 794 794 789 785 778 765 761 763 763 764 764 764 763 762 759 759 759 758 757 756 755 753 752 750 746 748 746 743 742 741 745 742 737 741 740 737 740 739 739 741 739 740 739 739 744 746 739 730 738 745 735 734 738 736 735 734 740 745 746 751 755 758 762
811 809 809 807 806 805 804 804 802 802 801 800 799 799 798 797 796 795 794 794 793 793 793 793 794 794 792 787 781 772 762 762 764 763 764 764 763 762 761 760 759 758 756 754 753 752 751 749 745 746 748 746 743 742 740 738 736 735 740 742 738 739 739 740 740 738 739 739 737 740 742 738 732 739 748 746 750 754 755 757 752 750 750 751 755 757 759 762
810 808 807 806 805 804 803 802 801 800 799 799 798 797 796 796 795 794 793 792 792 792 792 792 793 793 790 784 777 768 763 764 764 764 764 763 762 761 760 760 759 758 755 752 751 750 751 748 745 747 747 745 747 746 740 734 736 737 740 746 743 741 743 740 739 737 738 740 733 737 748 745 738 742 748 750 753 756 764 772 771 771 768 766 764 761 763 765
809 808 806 805 804 802 802 800 799 799 798 797 796 795 795 794 793 793 791 791 791 790 790 791 792 791 789 780 771 769 767 764 764 763 762 761 761 758 758 758 757 757 755 752 749 749 750 747 745 745 742 743 746 741 736 733 737 740 741 747 745 745 747 738 737 736 737 738 728 738 758 749 739 743 746 749 753 756 764 770 774 778 778 779 777 773 772 771
808 806 805 804 802 801 800 799 798 797 796 796 795 794 793 792 792 791 790 790 789 789 789 790 790 790 785 775 768 768 766 764 763 761 760 760 758 756 755 755 755 755 754 753 750 747 748 747 745 744 741 742 739 735 739 738 739 743 745 747 745 748 744 731 732 736 738 736 725 741 756 745 741 746 745 747 752 756 763 769 773 776 776 777 782 785 784 781
807 805 803 802 801 800 798 797 796 795 795 794 793 793 791 791 790 789 789 788 788 788 788 788 789 788 783 772 765 763 761 762 761 757 758 758 755 753 751 751 752 752 752 752 751 748 746 745 746 748 744 741 738 740 746 744 741 744 750 752 746 744 737 723 725 731 737 733 727 743 751 744 747 748 746 747 750 754 761 769 773 776 777 775 778 785 790 789
805 804 802 801 799 798 796 795 795 793 793 792 791 790 789 789 787 787 787 786 787 787 787 788 786 787 782 768 760 758 757 757 755 754 754 754 753 750 747 748 749 750 751 750 750 747 743 744 746 748 744 742 745 747 749 748 745 742 747 750 743 742 736 723 722 724 729 731 732 741 742 744 749 747 749 750 750 753 758 766 771 773 774 773 775 779 783 784
803 802 800 799 797 796 795 794 793 792 791 790 789 788 787 787 786 786 784 784 786 784 786 785 782 785 778 763 757 754 750 750 751 752 752 752 751 749 746 744 745 747 747 748 750 745 743 745 748 747 743 742 744 746 752 755 750 742 743 744 736 737 734 724 724 723 723 729 735 737 735 742 747 745 750 753 751 752 755 763 768 769 769 769 771 775 777 779
802 800 799 797 796 794 793 792 791 790 789 788 787 786 785 784 783 783 781 782 783 784 786 782 784 784 767 755 756 750 746 747 750 751 751 751 750 749 746 742 741 743 745 748 747 744 744 745 746 747 744 743 741 741 748 746 741 740 741 742 735 732 730 722 725 725 722 727 733 736 737 742 744 743 748 753 752 751 754 762 766 766 768 767 768 770 773 777
800 798 797 795 794 793 791 790 790 789 787 786 785 784 782 781 781 780 778 778 778 780 779 774 778 773 751 745 750 748 747 748 750 750 749 749 748 748 745 741 739 741 744 746 745 743 743 744 746 746 742 739 736 734 737 730 726 730 732 736 732 728 726 716 717 719 719 729 733 733 737 741 744 744 747 754 754 752 756 763 765 767 768 767 766 765 769 775
798 797 795 794 792 791 790 789 788 787 786 785 783 782 780 776 773 770 770 771 770 768 764 760 766 762 748 746 745 744 747 748 747 746 745 745 745 745 743 739 737 739 740 740 742 739 738 745 744 738 734 731 730 729 729 722 718 720 724 730 726 722 723 713 713 715 716 730 734 727 730 739 744 742 745 756 758 755 758 764 766 767 769 769 767 764 768 774
796 795 793 792 791 789 788 787 786 785 784 783 782 780 776 769 765 764 765 764 761 762 760 756 759 759 753 749 742 741 745 746 744 742 742 742 741 742 740 736 736 738 735 732 736 736 737 742 735 729 727 725 727 727 726 722 718 718 721 727 725 720 718 713 716 717 716 729 731 723 730 740 744 742 744 753 759 760 759 763 767 766 767 769 769 769 770 775
795 793 792 791 789 788 786 785 784 783 782 781 780 777 772 768 766 768 769 763 756 757 759 756 756 755 753 751 745 745 747 748 745 741 740 740 738 738 735 733 734 733 730 728 732 737 739 736 727 724 724 723 725 724 724 723 721 721 719 722 726 719 713 715 720 720 719 727 728 725 736 744 744 744 743 746 757 763 760 760 763 764 766 769 770 773 775 778
793 791 791 789 787 787 785 783 782 781 780 778 776 773 771 770 770 770 771 766 756 751 752 753 754 752 751 751 748 749 749 745 744 739 737 739 736 732 730 730 730 727 726 725 727 735 737 730 722 721 721 722 724 723 724 724 724 726 721 721 724 714 712 723 728 724 721 723 722 725 738 746 746 749 746 741 751 758 756 758 761 761 765 768 769 773 777 779
792 790 789 787 786 785 783 782 780 778 777 775 773 770 770 770 771 770 769 766 757 748 745 746 748 747 746 747 748 749 746 741 740 736 732 735 733 729 726 724 725 724 722 719 721 727 728 723 718 718 721 721 723 725 725 726 730 728 720 718 717 710 711 722 728 725 724 723 719 727 750 756 750 755 753 743 747 752 751 755 760 761 764 766 769 773 776 779
790 789 787 786 785 783 782 781 778 776 774 772 771 769 769 770 770 771 770 766 756 745 741 739 740 740 740 744 746 743 740 736 735 733 728 729 730 727 723 719 720 721 718 716 718 722 721 716 715 719 720 718 722 725 723 726 732 731 721 712 709 708 710 717 723 728 736 737 723 729 762 769 752 753 755 748 749 753 755 757 759 762 764 766 769 772 774 779
789 787 786 785 784 782 782 778 776 776 773 771 771 769 770 770 770 772 771 767 753 735 732 734 733 732 733 738 739 740 743 733 729 731 727 727 726 722 722 717 715 715 712 712 716 717 714 710 711 716 719 720 723 723 719 722 730 732 721 711 708 705 707 717 723 731 741 740 724 724 751 766 757 751 751 750 752 754 760 765 764 764 765 766 769 771 773 778
787 785 784 784 782 782 780 776 775 775 772 771 771 770 771 770 773 774 773 773 750 720 719 727 728 725 725 728 731 738 739 724 723 729 724 726 725 719 720 716 713 712 704 709 720 715 708 709 712 714 717 721 722 719 717 719 727 726 713 710 714 707 708 719 725 730 730 727 727 725 734 754 759 751 744 748 754 754 757 762 764 763 764 765 767 771 774 777
786 784 783 782 782 781 779 777 776 773 773 773 771 772 772 772 774 772 775 772 739 707 711 721 723 723 722 722 724 728 722 710 718 725 721 725 724 719 721 715 712 710 699 707 720 712 705 709 709 711 716 719 718 715 714 719 725 717 705 711 718 712 712 719 724 727 721 725 739 734 730 748 757 749 743 747 754 756 754 754 755 757 761 765 768 772 774 777
784 783 781 781 780 779 778 778 776 774 774 773 772 774 772 775 776 772 773 760 724 708 717 719 722 723 719 720 722 723 719 710 711 715 719 725 722 720 721 713 708 706 699 703 712 708 703 702 702 709 716 717 715 711 709 717 720 708 703 713 720 717 716 720 724 723 722 737 747 736 731 746 753 746 745 750 753 754 753 750 749 751 756 765 770 772 774 776
782 781 780 780 779 778 777 775 775 774 774 773 774 775 774 777 776 774 773 751 720 717 722 718 722 720 714 718 721 722 722 711 702 708 720 724 722 721 717 709 705 702 700 704 706 700 696 700 704 710 714 711 710 708 707 714 713 706 710 718 724 725 721 724 724 720 733 752 748 731 728 741 748 739 738 747 747 745 746 746 747 747 752 765 771 771 774 777
781 779 778 778 777 777 775 774 774 773 773 773 774 776 777 776 773 769 763 743 726 728 726 719 719 713 711 715 716 719 720 709 700 709 720 720 722 723 717 711 707 703 706 710 707 699 701 711 712 709 708 705 706 709 709 711 708 711 720 723 730 735 733 737 735 730 745 754 739 726 723 735 747 738 733 737 735 734 739 741 744 746 753 769 773 769 773 779
779 777 776 776 776 776 774 773 773 773 773 773 773 776 775 773 771 763 748 738 741 744 737 729 719 709 711 712 709 715 716 706 701 707 713 716 719 719 713 706 703 705 712 714 709 705 708 712 710 708 705 700 707 713 714 714 711 717 723 724 737 748 751 757 752 747 751 744 728 720 722 736 740 728 725 730 729 730 731 734 738 742 754 770 771 768 774 779
778 776 775 774 774 773 773 772 772 773 772 772 772 772 771 769 762 750 740 741 749 751 743 736 722 710 712 711 706 710 710 702 701 705 708 711 715 716 708 697 691 697 707 710 708 710 715 712 707 710 706 700 704 709 717 720 715 718 722 724 736 747 761 770 759 753 755 742 724 714 721 739 735 718 717 723 726 726 725 728 732 736 753 766 765 767 774 779
776 775 774 773 772 772 771 771 771 771 771 772 771 769 770 763 747 737 740 742 748 750 743 737 727 714 713 710 702 704 705 700 699 704 707 709 714 716 708 697 689 688 698 707 705 708 723 723 709 707 706 702 700 700 707 714 715 716 713 716 725 729 748 764 754 751 755 742 729 721 723 736 737 726 717 715 719 720 719 723 726 734 751 762 764 769 775 780
775 773 772 772 772 770 770 770 770 771 770 770 769 768 762 749 736 736 741 741 745 746 740 735 729 717 712 706 699 697 698 697 698 702 705 707 709 709 705 698 688 685 694 706 703 702 717 717 701 698 699 699 702 698 696 707 716 715 708 714 721 714 723 742 741 737 740 739 737 732 725 725 731 730 719 713 716 717 719 724 728 740 752 760 766 771 775 780
773 772 771 771 769 769 769 769 769 770 769 768 768 762 748 736 734 739 742 744 746 745 742 735 724 716 711 704 699 697 694 694 698 701 702 703 702 701 699 692 684 685 690 696 699 701 711 709 696 698 701 698 702 700 694 702 712 714 715 717 711 699 705 730 741 734 735 745 743 734 730 730 736 737 725 719 721 721 728 735 738 745 753 759 766 771 776 779
772 770 768 767 766 767 768 767 768 768 767 769 768 756 739 732 732 734 738 742 743 744 745 737 719 709 708 703 699 698 694 694 697 697 698 700 698 696 695 687 681 683 682 684 694 696 700 705 700 701 708 702 698 700 696 696 700 710 719 711 701 701 702 717 739 746 746 750 742 735 737 738 743 744 733 728 729 728 734 741 743 748 754 759 765 769 774 776
771 768 766 764 764 765 766 767 767 767 767 768 765 752 740 734 730 731 736 738 740 743 742 733 716 702 701 700 696 694 693 695 697 693 693 697 694 689 691 686 678 679 676 679 692 690 688 706 709 701 705 703 698 703 707 700 694 700 705 699 702 719 720 717 732 748 753 752 746 743 739 732 733 737 734 734 733 730 735 741 743 748 754 759 764 768 772 775
770 767 763 761 763 764 765 766 765 766 767 765 758 748 740 737 733 733 737 738 741 740 735 730 716 701 696 692 689 692 693 693 693 689 689 693 689 684 684 683 681 682 676 676 689 687 682 705 717 702 697 703 703 707 713 711 702 697 697 695 698 710 718 719 724 733 742 749 749 748 745 732 720 719 726 730 727 726 734 740 742 748 755 760 763 766 770 776
768 765 760 760 763 763 763 765 764 765 765 758 750 744 741 740 738 736 737 738 740 738 734 730 718 705 696 686 683 688 688 689 689 684 684 685 685 684 680 676 681 682 676 676 685 685 683 701 717 707 699 706 708 705 705 708 708 706 705 704 702 705 711 717 719 718 724 738 745 750 750 732 708 706 716 721 720 722 729 737 743 748 755 760 763 766 771 777
767 765 759 760 763 762 763 765 763 762 760 752 747 744 743 742 739 736 735 736 737 736 735 732 722 708 695 684 684 685 683 686 684 678 679 680 682 686 678 673 679 679 677 682 684 684 688 699 710 711 707 708 705 697 695 697 699 704 708 706 704 707 713 725 730 717 711 721 729 737 744 728 705 703 711 713 716 720 726 736 744 749 755 760 763 767 772 777
768 765 759 760 762 762 764 763 758 757 755 748 743 741 741 740 738 734 733 735 735 733 731 729 723 709 691 680 682 683 680 682 680 675 676 677 678 680 672 671 678 675 676 686 684 680 687 693 703 710 705 700 696 691 692 694 690 695 704 702 700 703 709 725 734 722 714 715 711 719 736 731 714 707 708 710 714 718 726 736 743 749 755 760 764 769 773 776
765 762 758 760 761 762 765 762 753 752 751 745 740 739 737 739 738 733 730 730 728 726 722 718 712 700 683 677 680 680 677 678 677 673 673 676 677 674 672 676 680 674 676 685 684 682 689 693 701 706 699 693 693 690 691 692 690 697 702 699 698 699 702 711 714 712 719 720 714 724 740 736 723 714 710 709 711 719 729 736 742 750 756 761 766 770 773 776
761 758 757 760 760 762 765 759 750 747 746 743 743 739 734 734 735 733 729 724 719 718 714 707 702 691 678 677 679 676 675 679 678 671 673 679 677 674 677 681 680 676 678 683 682 687 697 699 699 705 708 709 707 703 702 700 696 699 700 697 698 696 699 708 706 708 721 722 716 729 743 736 725 720 716 712 715 725 732 736 742 750 756 763 767 770 773 777
761 756 755 758 760 761 761 757 753 751 748 745 744 739 735 734 732 731 728 721 716 716 713 706 699 688 678 678 679 674 674 679 679 674 675 679 678 676 679 681 679 679 681 681 679 687 699 696 692 703 717 721 717 712 710 705 700 700 697 697 699 697 700 709 713 719 727 721 713 721 735 738 729 724 722 719 722 730 734 738 745 751 758 764 767 770 774 777
763 758 753 755 758 759 759 756 756 755 750 746 741 735 738 737 731 728 727 720 714 712 712 707 697 686 680 681 681 679 677 676 677 675 675 680 683 681 680 680 680 681 683 682 682 689 697 691 685 694 703 703 703 703 699 697 702 706 702 699 700 700 700 703 715 724 721 719 721 715 721 737 736 728 726 724 725 732 736 742 749 755 761 765 767 771 774 777
764 761 757 757 757 754 753 752 754 754 750 746 740 735 736 733 724 723 723 719 714 710 708 705 696 687 684 681 680 681 679 677 677 675 675 681 684 681 680 680 680 682 685 686 686 691 698 695 688 690 691 686 686 690 690 693 701 705 705 703 700 700 701 705 715 718 711 722 730 713 710 731 733 725 725 724 725 731 738 746 753 758 763 765 767 771 775 779
765 762 760 761 759 753 748 747 749 748 746 745 742 736 733 729 723 723 721 715 712 709 708 705 695 684 679 678 681 683 680 679 681 678 676 681 684 684 686 684 681 683 687 689 689 690 697 698 693 691 694 692 686 683 683 689 696 699 701 704 701 701 705 709 713 710 708 721 725 709 709 723 723 719 721 722 724 729 738 749 756 760 764 767 769 773 777 780
769 765 759 759 759 754 748 744 741 740 736 737 736 733 731 729 725 723 718 712 711 709 706 704 696 684 677 676 680 682 680 681 684 681 678 682 685 687 691 690 685 685 689 693 693 691 696 699 694 693 701 704 696 686 682 688 695 697 699 701 702 704 704 708 711 708 709 716 714 710 715 716 713 716 719 720 724 729 739 751 757 761 764 767 771 776 778 781
774 772 766 762 756 747 742 737 733 731 727 726 729 728 728 727 724 721 716 714 715 711 705 706 703 692 681 676 678 679 676 677 681 680 680 685 688 687 690 692 688 687 692 696 696 695 699 700 694 694 706 710 703 697 694 696 698 700 700 699 700 705 706 708 711 710 715 718 712 713 721 717 708 708 712 718 723 729 740 750 755 759 762 765 770 774 777 780
775 774 771 769 758 742 736 732 726 725 724 724 724 722 720 722 723 722 720 716 715 714 711 712 710 698 685 680 682 683 679 676 677 678 679 684 685 683 686 686 685 690 696 697 697 698 702 702 696 699 710 710 705 705 704 701 703 705 705 701 700 705 708 709 710 710 714 718 717 719 725 720 711 706 710 719 724 731 740 747 751 755 759 763 768 770 774 778
773 771 770 772 764 746 737 731 724 724 727 724 721 717 715 716 717 718 721 717 712 713 716 714 709 699 690 688 691 691 688 683 680 678 676 676 678 680 682 682 682 689 694 696 697 698 700 703 701 704 713 710 703 704 706 710 718 719 708 700 699 702 703 706 707 707 709 712 717 722 720 714 712 712 717 724 727 731 737 741 746 752 757 762 765 767 773 777